QPF
0.00 0.00 0.00 0.00 0.00 0.01 0.01 0.00 0.01 0.01 0.01 0.01 0.02 0.02 0.01 0.00 0.01 0.02 0.03 0.05 0.04 0.02 0.01 0.01 0.01 0.02 0.02 0.02 0.01 0.01 0.02 0.02 0.01 0.01 0.02 0.03 0.02 0.01 0.01 0.01 0.01 0.01 0.00 0.00
0.00 0.00 0.01 0.00 0.00 0.00 0.00 0.00 0.01 0.01 0.00 0.01 0.01 0.02 0.02 0.01 0.02 0.03 0.04 0.03 0.04 0.04 0.02 0.01 0.02 0.04 0.03 0.03 0.03 0.02 0.02 0.03 0.03 0.02 0.02 0.02 0.01 0.01 0.01 0.01 0.01 0.00 0.00 0.00
0.00 0.00 0.00 0.00 0.00 0.00 0.00 0.01 0.01 0.01 0.01 0.00 0.01 0.02 0.02 0.01 0.03 0.02 0.02 0.02 0.02 0.04 0.04 0.01 0.02 0.04 0.03 0.03 0.03 0.02 0.02 0.03 0.03 0.01 0.01 0.02 0.01 0.01 0.01 0.01 0.02 0.01 0.01 0.00
0.01 0.01 0.00 0.00 0.00 0.00 0.01 0.00 0.00 0.01 0.01 0.01 0.01 0.04 0.03 0.03 0.02 0.01 0.01 0.01 0.02 0.04 0.05 0.02 0.02 0.02 0.02 0.02 0.02 0.02 0.02 0.02 0.01 0.01 0.01 0.01 0.02 0.02 0.01 0.01 0.01 0.01 0.01 0.00
0.00 0.00 0.00 0.00 0.00 0.00 0.01 0.00 0.00 0.01 0.01 0.02 0.02 0.03 0.03 0.01 0.01 0.01 0.01 0.01 0.02 0.03 0.04 0.02 0.01 0.01 0.01 0.01 0.01 0.02 0.01 0.01 0.01 0.01 0.01 0.01 0.01 0.01 0.01 0.01 0.01 0.01 0.01 0.01
0.00 0.00 0.00 0.00 0.00 0.00 0.00 0.00 0.01 0.01 0.01 0.02 0.02 0.03 0.04 0.02 0.01 0.01 0.01 0.01 0.01 0.02 0.04 0.02 0.01 0.01 0.01 0.01 0.01 0.01 0.01 0.01 0.01 0.00 0.01 0.01 0.01 0.01 0.02 0.02 0.02 0.02 0.02 0.01
0.00 0.00 0.00 0.00 0.00 0.00 0.01 0.02 0.03 0.04 0.04 0.03 0.01 0.01 0.02 0.01 0.01 0.00 0.00 0.00 0.01 0.01 0.01 0.01 0.00 0.00 0.01 0.01 0.01 0.01 0.01 0.01 0.01 0.01 0.00 0.00 0.01 0.02 0.02 0.02 0.03 0.02 0.03 0.02
0.00 0.00 0.00 0.00 0.00 0.00 0.00 0.01 0.03 0.04 0.03 0.03 0.01 0.02 0.01 0.01 0.02 0.01 0.00 0.00 0.01 0.02 0.01 0.01 0.00 0.00 0.00 0.00 0.01 0.01 0.01 0.01 0.01 0.01 0.01 0.01 0.00 0.01 0.01 0.01 0.02 0.02 0.02 0.02
0.00 0.00 0.00 0.00 0.00 0.00 0.01 0.01 0.01 0.01 0.01 0.02 0.02 0.02 0.01 0.02 0.03 0.02 0.01 0.01 0.01 0.01 0.01 0.00 0.00 0.00 0.00 0.00 0.01 0.01 0.01 0.01 0.01 0.01 0.01 0.01 0.00 0.00 0.00 0.01 0.01 0.01 0.01 0.01
0.00 0.00 0.00 0.00 0.00 0.00 0.00 0.01 0.01 0.01 0.03 0.03 0.03 0.02 0.03 0.04 0.04 0.02 0.03 0.04 0.02 0.00 0.00 0.00 0.00 0.00 0.00 0.01 0.01 0.01 0.01 0.01 0.01 0.02 0.02 0.01 0.01 0.00 0.00 0.01 0.01 0.01 0.01 0.01
0.00 0.01 0.00 0.00 0.01 0.00 0.00 0.01 0.01 0.01 0.02 0.03 0.03 0.03 0.02 0.03 0.04 0.02 0.02 0.03 0.03 0.01 0.00 0.00 0.00 0.00 0.00 0.01 0.01 0.01 0.01 0.01 0.01 0.02 0.03 0.02 0.02 0.01 0.00 0.00 0.01 0.01 0.01 0.01
0.00 0.01 0.00 0.00 0.00 0.00 0.00 0.01 0.01 0.01 0.02 0.01 0.02 0.02 0.01 0.01 0.02 0.02 0.02 0.02 0.03 0.02 0.01 0.00 0.00 0.00 0.00 0.00 0.00 0.01 0.01 0.01 0.01 0.02 0.04 0.04 0.03 0.02 0.01 0.01 0.00 0.00 0.01 0.01
0.00 0.01 0.00 0.00 0.00 0.00 0.00 0.00 0.00 0.00 0.00 0.01 0.01 0.01 0.00 0.00 0.01 0.01 0.01 0.01 0.01 0.01 0.01 0.00 0.00 0.00 0.00 0.00 0.00 0.00 0.01 0.01 0.01 0.02 0.04 0.05 0.04 0.03 0.02 0.01 0.01 0.00 0.01 0.01
0.00 0.01 0.00 0.00 0.00 0.00 0.00 0.00 0.00 0.00 0.01 0.01 0.01 0.01 0.00 0.00 0.00 0.00 0.00 0.00 0.00 0.00 0.00 0.00 0.00 0.00 0.00 0.00 0.00 0.00 0.00 0.01 0.01 0.02 0.02 0.02 0.02 0.03 0.02 0.02 0.02 0.01 0.01 0.01
0.00 0.01 0.00 0.00 0.00 0.00 0.00 0.00 0.00 0.00 0.00 0.00 0.00 0.00 0.00 0.00 0.00 0.00 0.00 0.00 0.00 0.00 0.00 0.00 0.01 0.01 0.01 0.01 0.00 0.00 0.01 0.01 0.02 0.02 0.02 0.02 0.02 0.02 0.02 0.01 0.01 0.01 0.01 0.01
0.00 0.00 0.00 0.00 0.00 0.00 0.00 0.00 0.00 0.00 0.00 0.00 0.00 0.00 0.00 0.00 0.00 0.00 0.00 0.00 0.00 0.00 0.00 0.00 0.00 0.00 0.00 0.00 0.01 0.01 0.01 0.01 0.02 0.02 0.02 0.02 0.02 0.01 0.01 0.01 0.01 0.01 0.01 0.02
0.00 0.00 0.00 0.00 0.00 0.00 0.00 0.00 0.00 0.00 0.00 0.00 0.00 0.00 0.00 0.00 0.00 0.00 0.00 0.00 0.00 0.00 0.00 0.00 0.00 0.00 0.00 0.00 0.01 0.01 0.00 0.01 0.01 0.01 0.02 0.01 0.01 0.02 0.01 0.01 0.01 0.01 0.01 0.02
0.00 0.00 0.00 0.00 0.00 0.00 0.00 0.00 0.00 0.00 0.00 0.00 0.00 0.00 0.00 0.00 0.00 0.00 0.00 0.00 0.00 0.00 0.00 0.00 0.00 0.00 0.00 0.00 0.00 0.01 0.00 0.00 0.00 0.01 0.01 0.01 0.01 0.01 0.01 0.01 0.01 0.00 0.01 0.01
0.00 0.00 0.00 0.00 0.00 0.00 0.00 0.00 0.00 0.00 0.00 0.00 0.00 0.00 0.00 0.00 0.00 0.00 0.00 0.00 0.00 0.00 0.00 0.00 0.00 0.00 0.00 0.00 0.00 0.00 0.00 0.00 0.00 0.01 0.01 0.01 0.01 0.01 0.01 0.00 0.01 0.01 0.01 0.01
0.00 0.00 0.00 0.00 0.00 0.00 0.00 0.00 0.00 0.00 0.00 0.00 0.00 0.00 0.00 0.00 0.00 0.00 0.00 0.00 0.00 0.00 0.00 0.00 0.00 0.00 0.00 0.00 0.00 0.00 0.00 0.00 0.00 0.01 0.01 0.01 0.01 0.01 0.01 0.01 0.01 0.01 0.01 0.01
0.00 0.00 0.00 0.00 0.00 0.00 0.00 0.00 0.00 0.00 0.00 0.00 0.00 0.00 0.00 0.00 0.00 0.00 0.00 0.00 0.00 0.00 0.00 0.00 0.00 0.00 0.00 0.00 0.00 0.00 0.00 0.00 0.00 0.01 0.01 0.01 0.01 0.01 0.01 0.01 0.01 0.02 0.02 0.02
0.00 0.00 0.00 0.00 0.00 0.00 0.00 0.00 0.00 0.00 0.00 0.01 0.01 0.01 0.00 0.00 0.00 0.00 0.00 0.00 0.00 0.00 0.00 0.00 0.00 0.00 0.00 0.00 0.00 0.01 0.00 0.01 0.01 0.01 0.01 0.01 0.01 0.02 0.01 0.01 0.02 0.03 0.04 0.04
0.00 0.00 0.00 0.00 0.00 0.00 0.00 0.00 0.00 0.00 0.00 0.00 0.00 0.01 0.00 0.00 0.00 0.00 0.00 0.00 0.00 0.00 0.00 0.00 0.00 0.00 0.00 0.00 0.00 0.01 0.01 0.01 0.01 0.01 0.01 0.01 0.01 0.02 0.02 0.02 0.02 0.02 0.05 0.06
0.00 0.00 0.00 0.00 0.00 0.00 0.00 0.00 0.00 0.00 0.00 0.00 0.00 0.00 0.00 0.00 0.00 0.00 0.00 0.00 0.00 0.00 0.00 0.00 0.00 0.00 0.00 0.00 0.00 0.01 0.01 0.01 0.01 0.01 0.01 0.01 0.01 0.02 0.02 0.03 0.03 0.03 0.04 0.04
0.00 0.00 0.00 0.00 0.00 0.00 0.00 0.00 0.00 0.00 0.00 0.00 0.00 0.00 0.00 0.00 0.00 0.00 0.00 0.00 0.00 0.00 0.00 0.00 0.00 0.00 0.00 0.00 0.00 0.01 0.01 0.01 0.01 0.01 0.01 0.01 0.02 0.02 0.02 0.03 0.03 0.03 0.03 0.03
0.00 0.00 0.01 0.00 0.00 0.00 0.00 0.00 0.00 0.00 0.00 0.00 0.00 0.01 0.01 0.00 0.00 0.00 0.00 0.00 0.00 0.00 0.00 0.00 0.00 0.00 0.00 0.00 0.01 0.01 0.01 0.01 0.01 0.02 0.02 0.03 0.03 0.03 0.03 0.03 0.03 0.03 0.03 0.03
MSLP
1012.83 1013.53 1014.13 1014.60 1014.93 1015.14 1015.25 1015.30 1015.31 1015.30 1015.26 1015.17 1015.03 1014.83 1014.56 1014.25 1013.91 1013.58 1013.31 1013.12 1013.03 1013.05 1013.15 1013.31 1013.51 1013.70 1013.87 1014.03 1014.18 1014.33 1014.52 1014.76 1015.04 1015.36 1015.69 1015.98 1016.22 1016.35 1016.38 1016.30 1016.14 1015.94 1015.74 1015.58
1013.58 1014.20 1014.71 1015.09 1015.34 1015.49 1015.58 1015.63 1015.67 1015.70 1015.70 1015.66 1015.53 1015.33 1015.03 1014.67 1014.27 1013.91 1013.61 1013.42 1013.35 1013.40 1013.55 1013.75 1013.97 1014.17 1014.33 1014.45 1014.55 1014.65 1014.79 1014.98 1015.25 1015.56 1015.90 1016.23 1016.48 1016.64 1016.67 1016.60 1016.44 1016.23 1016.02 1015.86
1014.21 1014.74 1015.15 1015.44 1015.63 1015.75 1015.83 1015.92 1016.02 1016.11 1016.17 1016.16 1016.05 1015.83 1015.50 1015.08 1014.63 1014.22 1013.89 1013.68 1013.63 1013.71 1013.90 1014.15 1014.40 1014.61 1014.76 1014.86 1014.91 1014.97 1015.06 1015.23 1015.47 1015.78 1016.13 1016.46 1016.73 1016.90 1016.94 1016.86 1016.70 1016.48 1016.27 1016.10
1014.72 1015.14 1015.45 1015.66 1015.80 1015.91 1016.03 1016.17 1016.34 1016.51 1016.63 1016.66 1016.57 1016.32 1015.94 1015.46 1014.95 1014.47 1014.10 1013.87 1013.82 1013.92 1014.14 1014.42 1014.70 1014.93 1015.08 1015.17 1015.21 1015.24 1015.31 1015.46 1015.69 1015.99 1016.33 1016.67 1016.94 1017.11 1017.15 1017.08 1016.91 1016.69 1016.48 1016.31
1015.08 1015.40 1015.63 1015.78 1015.90 1016.03 1016.20 1016.41 1016.67 1016.91 1017.09 1017.16 1017.07 1016.79 1016.36 1015.81 1015.21 1014.66 1014.22 1013.96 1013.88 1013.98 1014.21 1014.52 1014.82 1015.08 1015.26 1015.36 1015.40 1015.43 1015.50 1015.64 1015.87 1016.16 1016.50 1016.84 1017.11 1017.27 1017.32 1017.24 1017.07 1016.86 1016.65 1016.49
1015.32 1015.55 1015.72 1015.84 1015.97 1016.13 1016.37 1016.66 1017.00 1017.32 1017.56 1017.65 1017.55 1017.24 1016.74 1016.11 1015.43 1014.79 1014.28 1013.95 1013.84 1013.92 1014.15 1014.46 1014.79 1015.07 1015.28 1015.41 1015.48 1015.53 1015.61 1015.76 1015.99 1016.28 1016.62 1016.94 1017.21 1017.37 1017.42 1017.34 1017.18 1016.98 1016.79 1016.64
1015.45 1015.63 1015.76 1015.88 1016.04 1016.25 1016.56 1016.93 1017.34 1017.72 1018.00 1018.11 1018.00 1017.66 1017.10 1016.39 1015.63 1014.91 1014.31 1013.92 1013.74 1013.78 1013.99 1014.30 1014.63 1014.94 1015.18 1015.35 1015.45 1015.54 1015.65 1015.81 1016.04 1016.34 1016.66 1016.98 1017.24 1017.40 1017.45 1017.39 1017.24 1017.06 1016.89 1016.77
1015.48 1015.65 1015.79 1015.94 1016.13 1016.41 1016.78 1017.22 1017.68 1018.11 1018.41 1018.52 1018.40 1018.02 1017.41 1016.65 1015.81 1015.02 1014.35 1013.88 1013.65 1013.63 1013.80 1014.09 1014.43 1014.75 1015.02 1015.22 1015.37 1015.49 1015.63 1015.81 1016.04 1016.33 1016.64 1016.95 1017.19 1017.36 1017.41 1017.37 1017.26 1017.12 1016.99 1016.90
1015.44 1015.63 1015.82 1016.01 1016.27 1016.60 1017.01 1017.50 1017.99 1018.43 1018.74 1018.84 1018.70 1018.30 1017.66 1016.86 1015.99 1015.14 1014.42 1013.90 1013.60 1013.53 1013.65 1013.91 1014.23 1014.55 1014.84 1015.07 1015.26 1015.41 1015.57 1015.76 1016.00 1016.27 1016.57 1016.86 1017.10 1017.26 1017.33 1017.32 1017.25 1017.15 1017.07 1017.03
1015.36 1015.61 1015.86 1016.12 1016.42 1016.80 1017.24 1017.73 1018.22 1018.64 1018.93 1019.01 1018.86 1018.45 1017.81 1017.01 1016.13 1015.27 1014.52 1013.96 1013.61 1013.49 1013.56 1013.78 1014.07 1014.39 1014.68 1014.93 1015.14 1015.32 1015.50 1015.70 1015.93 1016.19 1016.46 1016.73 1016.96 1017.13 1017.22 1017.25 1017.23 1017.19 1017.17 1017.18
1015.27 1015.60 1015.91 1016.23 1016.59 1016.98 1017.41 1017.87 1018.32 1018.69 1018.94 1018.99 1018.83 1018.43 1017.82 1017.05 1016.20 1015.37 1014.63 1014.06 1013.68 1013.51 1013.54 1013.70 1013.96 1014.25 1014.54 1014.80 1015.03 1015.23 1015.41 1015.61 1015.83 1016.08 1016.33 1016.59 1016.81 1016.99 1017.12 1017.19 1017.23 1017.26 1017.30 1017.37
1015.19 1015.60 1015.98 1016.36 1016.73 1017.11 1017.50 1017.90 1018.27 1018.56 1018.75 1018.77 1018.59 1018.22 1017.66 1016.96 1016.18 1015.41 1014.71 1014.15 1013.76 1013.56 1013.53 1013.65 1013.86 1014.13 1014.40 1014.66 1014.89 1015.11 1015.31 1015.51 1015.72 1015.96 1016.20 1016.45 1016.68 1016.89 1017.06 1017.19 1017.29 1017.39 1017.49 1017.61
1015.15 1015.63 1016.07 1016.46 1016.83 1017.17 1017.49 1017.79 1018.05 1018.25 1018.36 1018.34 1018.17 1017.83 1017.35 1016.74 1016.06 1015.37 1014.73 1014.21 1013.82 1013.59 1013.52 1013.59 1013.75 1013.98 1014.23 1014.48 1014.72 1014.95 1015.16 1015.38 1015.60 1015.83 1016.08 1016.34 1016.60 1016.84 1017.06 1017.26 1017.43 1017.59 1017.76 1017.93
1015.17 1015.69 1016.16 1016.55 1016.88 1017.15 1017.38 1017.56 1017.71 1017.80 1017.83 1017.77 1017.60 1017.32 1016.92 1016.41 1015.85 1015.26 1014.70 1014.22 1013.84 1013.59 1013.47 1013.48 1013.60 1013.78 1014.01 1014.25 1014.50 1014.75 1014.98 1015.22 1015.46 1015.72 1015.99 1016.27 1016.56 1016.86 1017.14 1017.41 1017.66 1017.90 1018.12 1018.33
1015.26 1015.79 1016.25 1016.62 1016.89 1017.07 1017.18 1017.24 1017.27 1017.26 1017.22 1017.13 1016.97 1016.75 1016.44 1016.05 1015.60 1015.12 1014.63 1014.19 1013.82 1013.55 1013.39 1013.35 1013.40 1013.54 1013.74 1013.98 1014.24 1014.50 1014.77 1015.04 1015.31 1015.60 1015.91 1016.24 1016.58 1016.93 1017.29 1017.64 1017.97 1018.27 1018.55 1018.81
1015.41 1015.92 1016.35 1016.66 1016.85 1016.94 1016.94 1016.89 1016.80 1016.71 1016.60 1016.50 1016.37 1016.21 1015.99 1015.72 1015.38 1014.99 1014.58 1014.17 1013.81 1013.51 1013.30 1013.20 1013.19 1013.29 1013.46 1013.69 1013.95 1014.24 1014.54 1014.85 1015.16 1015.50 1015.85 1016.23 1016.63 1017.04 1017.47 1017.90 1018.31 1018.69 1019.03 1019.32
1015.60 1016.06 1016.43 1016.67 1016.78 1016.78 1016.68 1016.53 1016.36 1016.20 1016.07 1015.97 1015.88 1015.79 1015.66 1015.48 1015.24 1014.94 1014.58 1014.20 1013.83 1013.50 1013.24 1013.08 1013.02 1013.07 1013.21 1013.42 1013.69 1014.00 1014.32 1014.67 1015.02 1015.39 1015.79 1016.21 1016.67 1017.15 1017.64 1018.14 1018.62 1019.07 1019.47 1019.81
1015.79 1016.19 1016.48 1016.65 1016.68 1016.60 1016.43 1016.22 1016.00 1015.81 1015.67 1015.59 1015.55 1015.53 1015.49 1015.40 1015.23 1015.00 1014.68 1014.32 1013.94 1013.57 1013.27 1013.04 1012.93 1012.93 1013.03 1013.23 1013.50 1013.81 1014.15 1014.52 1014.90 1015.29 1015.71 1016.16 1016.65 1017.18 1017.72 1018.28 1018.83 1019.34 1019.80 1020.20
1015.96 1016.28 1016.50 1016.59 1016.56 1016.42 1016.21 1015.96 1015.73 1015.55 1015.43 1015.39 1015.41 1015.45 1015.49 1015.47 1015.37 1015.18 1014.89 1014.54 1014.14 1013.74 1013.39 1013.12 1012.95 1012.91 1012.98 1013.15 1013.40 1013.70 1014.04 1014.40 1014.78 1015.17 1015.59 1016.05 1016.55 1017.09 1017.67 1018.27 1018.87 1019.44 1019.96 1020.42
1016.08 1016.32 1016.47 1016.50 1016.41 1016.24 1016.01 1015.77 1015.55 1015.40 1015.34 1015.35 1015.43 1015.54 1015.63 1015.67 1015.62 1015.46 1015.19 1014.84 1014.43 1014.00 1013.61 1013.30 1013.09 1013.01 1013.04 1013.18 1013.40 1013.67 1013.99 1014.32 1014.67 1015.03 1015.42 1015.85 1016.34 1016.87 1017.46 1018.09 1018.72 1019.34 1019.93 1020.46
1016.14 1016.31 1016.38 1016.36 1016.25 1016.06 1015.84 1015.63 1015.46 1015.36 1015.35 1015.43 1015.57 1015.73 1015.88 1015.96 1015.94 1015.80 1015.54 1015.19 1014.76 1014.32 1013.91 1013.56 1013.32 1013.20 1013.20 1013.30 1013.47 1013.71 1013.97 1014.25 1014.55 1014.85 1015.19 1015.58 1016.02 1016.53 1017.11 1017.74 1018.40 1019.07 1019.71 1020.31
1016.16 1016.25 1016.26 1016.20 1016.07 1015.89 1015.70 1015.53 1015.42 1015.39 1015.45 1015.59 1015.78 1015.99 1016.17 1016.28 1016.27 1016.15 1015.89 1015.54 1015.11 1014.66 1014.23 1013.87 1013.60 1013.45 1013.41 1013.47 1013.59 1013.77 1013.98 1014.19 1014.42 1014.65 1014.92 1015.25 1015.64 1016.11 1016.67 1017.30 1017.98 1018.68 1019.38 1020.05
1016.15 1016.17 1016.13 1016.03 1015.89 1015.73 1015.58 1015.47 1015.43 1015.46 1015.59 1015.78 1016.02 1016.26 1016.47 1016.58 1016.59 1016.46 1016.21 1015.85 1015.42 1014.97 1014.53 1014.16 1013.88 1013.70 1013.63 1013.64 1013.72 1013.84 1013.98 1014.13 1014.28 1014.45 1014.65 1014.91 1015.25 1015.69 1016.23 1016.85 1017.54 1018.28 1019.03 1019.77
1016.15 1016.09 1015.99 1015.87 1015.73 1015.60 1015.49 1015.45 1015.47 1015.58 1015.76 1016.00 1016.28 1016.54 1016.75 1016.87 1016.87 1016.73 1016.48 1016.12 1015.69 1015.23 1014.79 1014.41 1014.12 1013.92 1013.81 1013.78 1013.81 1013.88 1013.96 1014.05 1014.15 1014.26 1014.41 1014.63 1014.94 1015.35 1015.87 1016.50 1017.21 1017.98 1018.77 1019.57
1016.15 1016.03 1015.89 1015.75 1015.62 1015.52 1015.47 1015.48 1015.57 1015.74 1015.98 1016.25 1016.55 1016.81 1017.02 1017.12 1017.11 1016.96 1016.70 1016.33 1015.90 1015.44 1015.00 1014.61 1014.30 1014.07 1013.94 1013.87 1013.86 1013.88 1013.92 1013.97 1014.03 1014.12 1014.25 1014.46 1014.75 1015.16 1015.69 1016.33 1017.06 1017.85 1018.68 1019.52
1016.18 1016.00 1015.83 1015.68 1015.57 1015.51 1015.51 1015.59 1015.75 1015.97 1016.24 1016.54 1016.84 1017.10 1017.29 1017.37 1017.33 1017.17 1016.89 1016.51 1016.07 1015.60 1015.15 1014.75 1014.42 1014.17 1014.00 1013.90 1013.85 1013.85 1013.87 1013.91 1013.96 1014.06 1014.20 1014.42 1014.74 1015.17 1015.72 1016.38 1017.13 1017.95 1018.80 1019.66
Thickness
5777 5764 5753 5757 5763 5759 5756 5750 5745 5749 5761 5753 5743 5739 5743 5749 5747 5744 5742 5740 5740 5739 5742 5743 5742 5741 5739 5737 5735 5732 5730 5728 5726 5722 5720 5718 5717 5718 5718 5719 5719 5718 5718 5717
5763 5754 5764 5769 5768 5762 5756 5747 5745 5751 5760 5753 5743 5740 5746 5748 5745 5744 5742 5739 5738 5739 5738 5738 5738 5738 5736 5734 5733 5731 5728 5726 5724 5721 5720 5719 5717 5716 5716 5716 5716 5716 5715 5715
5752 5759 5770 5765 5760 5755 5752 5746 5743 5742 5751 5754 5744 5733 5739 5746 5748 5746 5745 5743 5741 5738 5736 5735 5735 5734 5733 5731 5730 5730 5727 5725 5723 5721 5720 5718 5715 5714 5712 5712 5711 5712 5712 5712
5758 5765 5765 5759 5755 5753 5742 5755 5751 5745 5736 5732 5740 5715 5730 5738 5739 5740 5740 5740 5739 5738 5736 5734 5733 5732 5731 5731 5730 5729 5726 5724 5722 5720 5717 5714 5710 5707 5709 5709 5709 5710 5710 5710
5754 5761 5758 5751 5754 5755 5749 5758 5753 5747 5739 5734 5742 5726 5725 5738 5730 5734 5737 5739 5739 5738 5736 5733 5732 5731 5731 5730 5728 5726 5724 5722 5720 5718 5715 5712 5710 5709 5710 5710 5708 5707 5708 5708
5759 5769 5765 5759 5762 5762 5759 5754 5751 5747 5738 5719 5738 5728 5717 5730 5733 5735 5738 5739 5739 5738 5736 5733 5732 5731 5728 5727 5725 5723 5721 5718 5718 5716 5714 5712 5709 5708 5707 5706 5705 5705 5705 5705
5749 5757 5764 5765 5752 5756 5752 5734 5719 5715 5713 5718 5745 5730 5723 5739 5745 5741 5738 5738 5739 5738 5734 5731 5728 5726 5724 5723 5721 5720 5717 5715 5715 5714 5713 5712 5710 5709 5707 5706 5704 5704 5703 5702
5738 5737 5754 5758 5751 5744 5746 5737 5713 5703 5709 5721 5737 5723 5729 5745 5748 5747 5744 5740 5738 5735 5732 5729 5727 5724 5722 5720 5719 5717 5715 5713 5713 5713 5712 5712 5711 5709 5708 5707 5706 5704 5703 5703
5739 5736 5757 5759 5760 5752 5740 5738 5743 5726 5723 5716 5722 5727 5732 5743 5740 5740 5738 5736 5732 5731 5729 5726 5725 5723 5721 5718 5717 5716 5714 5712 5711 5712 5712 5711 5710 5709 5708 5708 5707 5706 5705 5703
5747 5733 5745 5754 5754 5752 5749 5744 5735 5721 5705 5700 5715 5716 5713 5723 5726 5731 5731 5729 5729 5729 5727 5725 5723 5721 5720 5718 5716 5715 5713 5711 5710 5711 5711 5710 5709 5708 5707 5707 5706 5705 5704 5703
5749 5733 5735 5741 5735 5734 5738 5736 5733 5726 5722 5702 5696 5706 5734 5730 5730 5728 5730 5730 5729 5727 5725 5723 5722 5721 5719 5717 5714 5712 5711 5709 5709 5709 5709 5708 5708 5707 5706 5705 5704 5704 5703 5702
5744 5734 5726 5734 5747 5751 5742 5736 5731 5712 5711 5715 5704 5707 5743 5739 5736 5734 5731 5730 5729 5727 5725 5723 5721 5719 5716 5714 5713 5711 5709 5708 5707 5708 5707 5707 5706 5705 5704 5703 5703 5703 5701 5701
5735 5726 5713 5715 5726 5735 5733 5735 5734 5727 5718 5710 5701 5707 5741 5740 5736 5734 5730 5729 5727 5724 5723 5721 5718 5715 5714 5712 5711 5709 5708 5707 5707 5706 5705 5704 5704 5703 5702 5702 5701 5701 5700 5699
5731 5723 5715 5705 5714 5725 5723 5727 5729 5722 5706 5705 5711 5715 5726 5730 5729 5730 5729 5728 5726 5723 5720 5717 5714 5713 5712 5711 5709 5708 5706 5706 5705 5704 5702 5701 5701 5701 5700 5700 5699 5698 5698 5696
5728 5715 5720 5724 5729 5728 5724 5724 5725 5720 5718 5709 5714 5717 5725 5729 5729 5730 5729 5726 5723 5720 5718 5715 5712 5711 5710 5709 5708 5706 5704 5704 5703 5701 5699 5699 5699 5699 5698 5697 5696 5696 5694 5693
5723 5713 5714 5714 5723 5723 5719 5722 5723 5721 5721 5717 5717 5717 5734 5735 5733 5729 5726 5723 5719 5716 5715 5714 5712 5710 5709 5708 5706 5705 5703 5702 5701 5699 5697 5697 5696 5695 5694 5694 5694 5692 5690 5689
5714 5709 5702 5701 5713 5711 5705 5721 5722 5721 5724 5720 5712 5719 5730 5725 5724 5723 5722 5720 5717 5715 5713 5712 5711 5709 5708 5707 5706 5703 5702 5701 5698 5696 5695 5694 5692 5691 5691 5691 5689 5687 5686 5685
5710 5705 5701 5698 5698 5683 5713 5735 5730 5722 5723 5727 5725 5726 5726 5723 5723 5724 5722 5718 5716 5714 5712 5710 5709 5708 5708 5707 5706 5704 5701 5698 5696 5693 5692 5691 5689 5687 5687 5686 5684 5683 5682 5680
5714 5701 5693 5691 5686 5695 5713 5725 5724 5715 5713 5726 5722 5722 5722 5723 5718 5715 5720 5719 5715 5713 5712 5710 5709 5708 5707 5705 5704 5701 5698 5695 5692 5689 5688 5687 5686 5684 5682 5681 5680 5680 5678 5677
5708 5704 5690 5686 5677 5679 5704 5723 5728 5715 5701 5722 5722 5717 5714 5712 5696 5701 5714 5714 5713 5712 5710 5708 5707 5706 5703 5702 5701 5697 5693 5690 5688 5686 5686 5685 5683 5681 5679 5678 5677 5676 5675 5673
5689 5687 5682 5679 5677 5691 5712 5721 5717 5689 5696 5718 5719 5714 5710 5703 5702 5707 5711 5709 5708 5707 5706 5705 5703 5700 5699 5698 5696 5691 5688 5686 5686 5685 5683 5682 5680 5678 5676 5675 5674 5672 5670 5668
5686 5681 5680 5680 5673 5682 5712 5711 5702 5702 5715 5715 5713 5711 5707 5705 5706 5706 5705 5703 5702 5701 5701 5700 5697 5695 5695 5694 5690 5685 5682 5683 5682 5680 5678 5677 5676 5675 5673 5671 5669 5668 5665 5663
5690 5690 5688 5687 5687 5704 5711 5709 5711 5711 5707 5707 5706 5705 5703 5700 5698 5698 5697 5697 5697 5697 5695 5695 5692 5690 5689 5688 5685 5679 5678 5678 5676 5674 5672 5672 5671 5670 5669 5666 5664 5662 5660 5657
5690 5697 5688 5686 5693 5699 5702 5705 5704 5704 5700 5701 5701 5699 5697 5694 5693 5692 5692 5691 5691 5691 5689 5689 5686 5683 5682 5681 5679 5676 5674 5672 5670 5668 5667 5666 5665 5664 5663 5661 5660 5657 5654 5652
5681 5683 5680 5679 5687 5689 5693 5694 5695 5695 5695 5694 5693 5692 5691 5689 5688 5687 5686 5686 5685 5684 5684 5683 5680 5678 5676 5675 5673 5671 5669 5667 5663 5662 5660 5659 5658 5657 5656 5654 5652 5651 5650 5649
5678 5675 5669 5670 5681 5679 5681 5687 5689 5686 5685 5685 5684 5683 5685 5684 5682 5681 5680 5680 5679 5677 5677 5676 5674 5673 5672 5670 5667 5665 5663 5661 5658 5655 5653 5652 5651 5650 5648 5646 5644 5643 5644 5643